Regional Weather Roundup
Issued by NWS

Home | Current Version | Previous Version | Text Only | Print | Product List | Glossary Off
Versions: 1 2 3 4 5 6 7 8 9 10 11 12 13 14 15 16 17 18 19 20 21 22 23 24 25 26 27 28 29 30 31 32 33 34 35 36 37 38 39 40 41 42 43 44 45 46 47 48 49 50

000
ASUS43 KIND 300359
RWRIN

WEATHER ROUNDUP FOR INDIANA
NATIONAL WEATHER SERVICE INDIANAPOLIS IN
1200 AM EDT SUN AUG 30 2015

NOTE: "FAIR" INDICATES FEW OR NO CLOUDS BELOW 12,000 FEET WITH NO
SIGNIFICANT WEATHER AND/OR OBSTRUCTIONS TO VISIBILITY.

* - STATION DOES NOT REPORT WEATHER SUCH AS PRECIPITATION OR FOG.

+ - STATION NOT QUALITY CONTROLLED BY THE NATIONAL WEATHER SERVICE.
    USE DATA WITH CAUTION...ESPECIALLY DEWPOINT AND RELATIVE
    HUMIDITY OBSERVATIONS.

INZ001>003-010>013-019-020-300500-
NORTHWEST INDIANA

CITY           SKY/WX    TMP DP  RH WIND       PRES   REMARKS
KNOX *+        CLOUDY    66  66 100 S5        30.02S
MONTICELLO +   RAIN      69  69 100 CALM      30.04S

$$

LMZ046-743>745-300500-
SOUTHERN LAKE MICHIGAN

STATION/POSITION TIME  TEMP    WIND        PRES    WAVE
                       AIR SEA DIR/SP/G            HT
                 (UTC) (F)     (DEG/KT/KT) (MB)    (FT)
BURNS HARBOR     0300   70     290/  5/  6 1017.3R
MICHIGAN CITY    0300   71     150/  6/  6   N/A
5NW MICH CITY    0300   71 70  230/  4/  6   N/A     0

$$

INZ004-005-014>016-021>024-300500-
NORTH CENTRAL INDIANA

CITY           SKY/WX    TMP DP  RH WIND       PRES   REMARKS
GOSHEN         CLOUDY    69  66  90 S7        30.04F
PERU/GRISSOM   CLOUDY    69  64  82 CALM      30.05S
SOUTH BEND     MOCLDY    69  67  93 S3        30.04S FOG

$$

INZ006>009-017-018-025>027-300500-
NORTHEAST INDIANA

CITY           SKY/WX    TMP DP  RH WIND       PRES   REMARKS
ANGOLA *+      CLOUDY    66  57  72 SE3       30.07S
FORT WAYNE     CLOUDY    71  68  90 CALM      30.07S

$$

INZ028-029-035-036-043>045-051>053-300500-
WEST CENTRAL INDIANA

CITY           SKY/WX    TMP DP  RH WIND       PRES   REMARKS
CRAWFORDSVL +  CLOUDY    69  65  88 CALM      30.06S
GREENCASTLE +  CLOUDY    70  64  83 CALM      30.07S HAZE
LAFAYETTE      CLOUDY    72  68  87 CALM      30.04S
TERRE HAUTE    CLOUDY    71  66  84 CALM      30.05S

$$

INZ030>032-037>040-046>048-054>057-064-065-300500-
CENTRAL INDIANA

CITY           SKY/WX    TMP DP  RH WIND       PRES   REMARKS
FRANKFORT +    CLOUDY   N/A N/A N/A CALM      30.07S
GREENWOOD *+   CLOUDY    70  66  88 CALM      30.07F
INDIANAPOLIS   CLOUDY    75  67  76 S6        30.05S
-EAGLE CREEK   CLOUDY    73  68  84 CALM      30.06S
KOKOMO *+      CLOUDY    66  61  82 CALM      30.06S
MT COMFORT *+  CLOUDY    70 N/A N/A S3        30.07S
SHELBYVILLE    CLOUDY    72  68  87 CALM      30.06S

$$

INZ033-034-041-042-049-050-058-059-300500-
EAST CENTRAL INDIANA

CITY           SKY/WX    TMP DP  RH WIND       PRES   REMARKS
MUNCIE         CLOUDY    73  67  81 CALM      30.07S

$$

INZ060-061-067>069-081>083-085>088-300500-
SOUTHWEST INDIANA

CITY           SKY/WX    TMP DP  RH WIND       PRES   REMARKS
EVANSVILLE     CLOUDY    76  71  85 CALM      30.06R
HUNTINGBURG *+ CLOUDY    73  68  83 S3        30.06S

$$

INZ062-063-066-070>080-084-089>092-300500-
SOUTH CENTRAL AND SOUTHEAST INDIANA

CITY           SKY/WX    TMP DP  RH WIND       PRES   REMARKS
BLOOMINGTON    CLOUDY    70  67  90 CALM      30.07S
MADISON *+     MOCLDY    72  68  88 S6        30.10S
SEYMOUR +      CLOUDY    73  70  88 CALM      30.07R

$$




USA.gov is the U.S. government's official web portal to all federal, state and local government web resources and services.